Location: Boiro
(42.6475°N, 8.8834°W)
Time: 07:27:54
(UTC+01:00)

SR - Pass Details

Date: 06 December 2021
Orbit: 583 x 872 km, 66.7° (Epoch: 16 January)

Event Time Altitude Azimuth Distance (km) Brightness Sun altitude
Rises 02:19:34 0° 266° (W) 2,921 - -67.0°
Reaches altitude 10° 02:23:29 10° 300° (WNW) 1,963 - -66.6°
Maximum altitude 02:24:59 12° 320° (NW) 1,849 - -66.5°
Drops below altitude 10° 02:26:28 10° 341° (NNW) 1,936 - -66.3°
Sets 02:30:15 0° 15° (NNE) 2,818 - -65.9°
